User: anonymous   Login
Location: Heilwood
(40.6210°N, 78.9150°W)
Time: 10:09:52
(UTC-04:00)
Language:

Iridium 4 Rocket - Orbit

View from above orbital plane
View from above orbital plane
View from above satellite
View from above satellite

Ground track
Ground track

The orbit data is extracted from the following two-line orbital elements,

1 24797U 97020F   15108.17817823  .00001043  00000-0  21780-3 0  9998
2 24797 086.8913 282.9323 0228762 074.2023 059.2139 14.43574313943819
Epoch (UTC): 18 April 2015 04:16:34
Eccentricity: 0.0228762
inclination: 86.8913°
perigee height: 584 km
apogee height: 910 km
right ascension of ascending node: 282.9323°
argument of perigee: 74.2023°
revolutions per day: 14.43574313
mean anomaly at epoch: 59.2139°
orbit number at epoch: 94381

The dashed part of the orbit path shows where the satellite is in the earth's shadow,  

DLR